IGO5288 VECC-VABB

Flight info

Callsign IGO5288
Flight time N/A
Altitude 34000
Route JJS2E JJS Q20 OPAKA EMRAK2A
Aircraft A21N/M-SDE2E3FGHIRWXY/LB1

Departure

Time N/A
Airport Netaji Subhash Chandra Bose International Airport (VECC)

Arrival

Time 2026-05-04 16:22
Airport Chhatrapati Shivaji Maharaj International Airport (VABB)
Time Latitude Longitude Altitude Speed Heading
2026-05-04 15:59 19.63750 74.56799 22110 ft 395 kts 257°
2026-05-04 16:00 19.63027 74.53962 21738 ft 393 kts 255°
2026-05-04 16:00 19.62264 74.51232 21377 ft 391 kts 254°
2026-05-04 16:00 19.61454 74.48480 21012 ft 390 kts 253°
2026-05-04 16:00 19.60626 74.45750 20649 ft 389 kts 253°
2026-05-04 16:01 19.59780 74.43014 20318 ft 386 kts 253°
2026-05-04 16:01 19.58950 74.40353 20013 ft 385 kts 252°
2026-05-04 16:01 19.58100 74.37644 19693 ft 383 kts 252°
2026-05-04 16:01 19.57269 74.35008 19386 ft 382 kts 252°
2026-05-04 16:02 19.56422 74.32326 19071 ft 380 kts 252°
2026-05-04 16:02 19.55586 74.29684 18768 ft 379 kts 252°
2026-05-04 16:02 19.53916 74.24412 18154 ft 377 kts 252°
2026-05-04 16:03 19.53088 74.21802 17848 ft 375 kts 251°
2026-05-04 16:03 19.52255 74.19177 17546 ft 374 kts 251°
2026-05-04 16:03 19.51430 74.16576 17241 ft 373 kts 251°
2026-05-04 16:03 19.50607 74.13991 16936 ft 372 kts 251°
2026-05-04 16:04 19.49780 74.11394 16634 ft 370 kts 252°
2026-05-04 16:04 19.48142 74.06248 16010 ft 367 kts 252°
2026-05-04 16:04 19.47333 74.03707 15710 ft 365 kts 252°
2026-05-04 16:05 19.46521 74.01158 15408 ft 364 kts 252°
2026-05-04 16:05 19.45720 73.98645 15104 ft 362 kts 252°
2026-05-04 16:05 19.44135 73.93677 14480 ft 348 kts 252°
2026-05-04 16:06 19.43371 73.91285 14176 ft 342 kts 252°
2026-05-04 16:06 19.41068 73.85228 13359 ft 326 kts 243°
2026-05-04 16:07 19.39647 73.82449 12954 ft 319 kts 243°
2026-05-04 16:07 19.36531 73.76424 12034 ft 304 kts 243°
2026-05-04 16:08 19.35520 73.74464 11727 ft 300 kts 243°
2026-05-04 16:08 19.32542 73.68686 10795 ft 299 kts 243°
2026-05-04 16:09 19.30555 73.64831 10169 ft 297 kts 243°
2026-05-04 16:09 19.28574 73.60992 9527 ft 296 kts 243°
2026-05-04 16:10 19.26613 73.57198 8895 ft 293 kts 243°
2026-05-04 16:11 19.23712 73.51585 7943 ft 287 kts 243°
2026-05-04 16:11 19.22752 73.49731 7628 ft 283 kts 243°
2026-05-04 16:12 19.20237 73.44250 6708 ft 270 kts 253°
2026-05-04 16:12 19.18827 73.38615 5776 ft 260 kts 255°
2026-05-04 16:13 19.17748 73.34999 5175 ft 254 kts 254°
2026-05-04 16:13 19.16938 73.32328 4714 ft 251 kts 253°
2026-05-04 16:14 19.16711 73.31582 4584 ft 250 kts 253°
2026-05-04 16:14 19.15655 73.28115 3967 ft 246 kts 252°
2026-05-04 16:15 19.14095 73.23013 3039 ft 240 kts 252°
2026-05-04 16:16 19.13084 73.19712 2938 ft 234 kts 251°
2026-05-04 16:16 19.11634 73.14990 3297 ft 220 kts 252°
2026-05-04 16:17 19.10691 73.11916 3301 ft 219 kts 252°
2026-05-04 16:18 19.09311 73.07330 3296 ft 219 kts 257°
2026-05-04 16:18 19.09106 73.05724 3298 ft 219 kts 267°
2026-05-04 16:19 19.09083 73.00837 2336 ft 220 kts 268°
2026-05-04 16:19 19.09036 72.97707 1870 ft 201 kts 267°
2026-05-04 16:20 19.08975 72.93702 1101 ft 161 kts 267°
2026-05-04 16:20 19.08939 72.91489 702 ft 147 kts 267°
2026-05-04 16:21 19.08901 72.88279 179 ft 143 kts 266°
2026-05-04 16:22 19.08862 72.86349 33 ft 98 kts 269°
2026-05-04 16:22 19.08986 72.85484 27 ft 16 kts
2026-05-04 16:23 19.09027 72.85688 28 ft 10 kts 90°
2026-05-04 16:24 19.09034 72.86005 31 ft 10 kts 89°
2026-05-04 16:25 19.09034 72.86169 31 ft 11 kts 89°
2026-05-04 16:26 19.09089 72.86371 32 ft 0 kts 48°
2026-05-04 16:26 19.09090 72.86372 32 ft 0 kts 48°
2026-05-04 16:27 19.09182 72.86484 31 ft 22 kts 49°
2026-05-04 16:28 19.09421 72.86772 36 ft 7 kts 55°
2026-05-04 16:28 19.09434 72.86894 36 ft 5 kts 54°
2026-05-04 16:29 19.09545 72.87024 38 ft 5 kts 48°
2026-05-04 16:30 19.09583 72.87093 38 ft 5 kts 111°
2026-05-04 16:31 19.09545 72.87131 38 ft 1 kts 136°
2026-05-04 16:31 19.09537 72.87138 37 ft 0 kts 137°